Temperature
15 15 16 16 16 16 17 17 17 17 17 17 17 17 18 18 18 18 18 18 17 17 17 17 17 17 17 17 17 17 16 16 16 16 16 16 15 15 15 15 15 15 14
15 15 16 16 16 16 16 17 17 17 17 17 17 17 17 17 17 17 17 17 17 17 17 17 17 17 17 17 17 16 16 16 16 16 16 15 15 15 15 15 14 14 14
14 15 15 16 16 16 16 17 17 17 17 17 17 17 17 17 17 17 17 17 17 17 17 17 17 16 16 16 16 16 16 16 16 16 15 15 15 15 15 14 14 14 14
14 14 15 15 16 16 16 16 17 17 17 17 17 17 17 17 17 17 17 17 17 17 17 17 17 16 16 16 16 16 16 16 16 15 15 14 15 15 15 14 14 14 14
14 14 14 15 15 16 16 16 16 17 17 17 17 17 17 17 17 17 17 17 17 17 16 16 16 16 16 16 16 16 16 16 15 15 15 14 14 14 14 14 14 14 14
14 14 14 15 15 15 16 16 16 16 16 16 17 17 17 17 17 16 17 17 17 16 16 16 16 16 16 16 16 16 16 15 15 15 14 14 14 14 14 14 14 14 13
13 13 14 14 14 15 15 15 16 16 16 16 16 16 16 16 16 16 16 16 16 16 16 16 16 16 16 16 16 16 16 15 15 14 14 14 14 14 14 14 14 13 13
13 13 13 13 14 14 14 15 15 15 16 16 16 16 16 16 16 16 16 16 16 16 16 16 16 16 16 16 16 16 15 15 15 14 14 14 14 14 14 14 13 13 13
12 12 12 13 13 13 14 14 14 15 15 15 16 16 16 16 16 16 16 16 16 16 16 16 16 16 15 15 15 15 15 15 15 14 14 14 14 14 13 13 13 13 13
12 12 12 12 12 13 13 13 13 14 14 15 15 15 15 15 15 15 15 15 16 16 16 16 15 15 15 15 15 15 15 15 14 14 14 14 14 13 13 13 13 13 13
11 11 11 11 12 12 12 12 13 13 13 14 14 14 14 14 15 15 15 15 15 15 15 15 15 15 15 15 15 15 14 14 14 14 14 13 13 13 13 13 13 13 12
11 11 11 11 11 11 11 12 12 12 12 12 12 13 13 13 14 14 14 14 14 14 15 15 15 15 15 15 15 14 14 14 14 14 13 13 13 13 13 13 13 13 12
10 10 10 10 10 10 11 11 11 11 11 12 12 12 12 12 13 13 13 14 14 14 14 14 14 14 14 14 14 14 14 14 14 13 13 13 13 13 13 13 13 13 12
10 10 10 10 10 10 10 10 10 10 10 11 11 11 11 12 12 12 12 13 13 13 13 14 14 13 14 14 14 14 14 13 13 13 13 13 13 13 13 13 13 13 12
10 9 9 9 9 9 9 9 9 9 10 10 10 10 10 11 11 11 11 12 12 12 13 13 13 13 13 13 13 13 13 13 13 13 13 13 13 13 13 13 13 12 12
9 9 9 8 8 8 8 9 9 9 9 9 9 9 10 10 10 10 10 11 11 12 12 12 12 12 12 12 12 12 13 13 13 13 13 13 13 13 13 13 13 12 12
9 8 8 8 8 8 8 8 8 8 8 8 8 9 9 9 9 9 10 10 10 11 11 11 11 12 12 12 12 12 12 12 12 12 12 13 13 13 13 13 12 12 12
8 8 8 8 7 7 7 7 7 7 7 8 8 8 8 8 8 8 9 9 10 10 10 10 11 11 11 11 11 11 11 12 12 12 12 12 12 12 12 12 12 12 12
8 8 7 7 7 7 7 7 7 7 7 7 7 7 8 8 8 8 8 9 9 9 9 9 10 10 10 10 10 11 11 11 11 11 11 12 12 12 12 12 12 12 12
8 8 7 7 7 7 6 6 6 6 6 6 7 7 7 7 7 7 7 8 8 8 9 9 9 9 9 10 10 10 10 10 11 11 11 11 11 11 12 12 12 12 12
8 8 7 7 7 6 6 6 6 6 6 6 6 6 6 7 7 7 7 7 7 8 8 8 8 8 9 9 9 9 10 10 10 10 10 11 11 11 11 11 11 11 11
8 7 7 7 6 6 6 5 5 5 5 5 5 6 6 6 6 6 6 7 7 7 7 8 8 8 8 8 8 8 8 9 9 10 10 10 10 10 10 11 11 11 11
7 7 7 6 6 6 5 5 5 5 5 5 5 5 5 5 6 6 6 6 6 7 7 7 7 7 7 8 8 8 8 8 8 9 9 9 10 10 10 10 10 11 11
7 7 6 6 6 5 5 5 5 4 4 4 5 5 5 5 5 5 5 6 6 6 6 7 7 7 7 7 7 8 8 8 8 8 9 9 9 9 10 10 10 10 10
7 6 6 6 5 5 5 5 4 4 4 4 4 4 4 4 5 5 5 5 6 6 6 6 6 6 7 7 7 7 8 8 8 8 8 8 9 9 9 10 10 10 10
6 6 6 5 5 5 5 4 4 4 4 4 4 4 4 4 4 5 5 5 5 5 6 6 6 6 6 6 6 7 7 7 8 8 8 8 8 9 9 9 9 10 10
Wind_Speed
5 8 14 15 16 16 15 14 12 9 9 7 4 1 2 4 5 6 6 7 7 7 7 8 8 7 7 6 6 7 8 8 8 9 9 10 10 9 9 9 9 9 11
5 9 14 15 15 15 15 14 13 11 9 8 6 4 1 2 4 5 6 7 7 8 8 8 8 8 7 7 7 7 8 8 9 9 9 9 9 9 8 8 8 9 11
6 9 12 14 15 14 14 14 13 12 10 8 7 6 3 0 2 3 5 7 7 8 8 8 8 8 8 8 8 8 8 9 9 9 9 8 9 9 8 8 9 10 10
7 9 10 12 13 14 14 13 13 11 10 9 7 6 4 2 1 3 3 5 7 8 8 8 8 9 9 9 9 8 8 8 8 8 7 8 9 10 9 8 9 9 9
7 9 10 11 12 12 13 13 13 12 10 9 8 5 5 3 2 2 3 4 5 6 7 8 8 9 9 9 10 9 9 8 8 7 5 7 9 10 10 9 9 9 10
6 9 9 10 11 11 11 12 11 12 11 9 8 7 5 4 3 2 3 4 5 5 6 7 8 9 9 10 10 10 9 9 8 6 5 7 9 11 11 10 9 9 10
6 8 8 9 9 10 10 10 11 11 11 10 8 8 6 4 3 3 4 4 5 5 6 7 8 9 10 10 10 10 10 9 8 6 6 7 10 12 11 11 10 10 10
6 6 7 9 9 9 9 9 9 10 10 9 9 8 8 6 4 4 4 5 5 6 6 7 8 9 9 10 11 11 10 10 8 7 6 8 11 12 11 11 11 10 10
5 5 5 7 8 8 8 8 8 9 9 9 8 8 8 8 6 5 5 5 6 7 7 8 8 8 9 10 11 12 11 11 8 6 8 9 12 13 12 12 11 11 11
4 4 4 6 7 8 7 7 7 7 8 8 8 8 7 7 7 6 5 5 6 7 8 9 9 9 9 10 11 12 12 11 9 7 7 10 14 14 13 13 12 12 11
4 4 4 5 6 7 7 7 7 7 7 7 7 7 7 6 6 6 5 6 6 7 8 9 10 10 10 10 11 12 11 9 9 7 8 12 15 15 15 14 14 13 12
3 4 4 4 6 7 7 6 5 6 5 5 6 6 5 5 6 6 6 6 6 7 7 8 10 10 8 7 8 10 8 9 8 7 10 15 16 16 16 16 15 14 13
3 4 4 4 5 6 4 5 4 4 4 5 6 6 6 5 5 4 3 3 4 5 4 5 7 7 6 6 6 8 9 9 7 7 11 16 17 17 17 17 16 16 15
3 3 3 3 3 4 5 4 4 3 3 3 5 6 5 2 2 2 2 2 2 2 2 2 3 5 6 7 7 7 8 7 7 7 10 17 18 18 18 18 18 17 16
3 3 3 3 3 4 4 4 4 3 3 4 4 5 5 3 2 3 3 2 3 2 3 3 3 5 6 7 7 8 7 7 7 8 9 15 18 19 19 19 19 18 17
3 3 3 3 3 3 3 4 3 4 4 4 4 5 6 4 3 3 4 4 3 3 3 4 4 4 5 6 7 8 8 8 7 7 9 12 17 19 20 20 19 19 19
2 2 3 4 3 3 4 4 4 4 4 3 4 5 5 5 4 4 4 4 4 4 4 4 4 4 5 5 6 7 7 7 7 7 8 10 13 17 19 20 20 19 20
2 2 3 4 4 4 4 4 4 4 4 4 4 5 5 6 6 4 4 5 5 4 4 5 5 4 5 5 5 6 6 5 7 7 8 9 11 13 16 19 20 20 20
2 2 3 3 4 4 4 4 5 5 4 5 4 4 5 6 6 5 5 5 5 4 4 5 5 5 5 5 5 5 5 5 6 7 7 9 10 12 13 16 19 20 20
2 3 3 3 4 4 4 4 4 4 4 5 4 5 6 6 6 5 5 6 6 5 5 5 6 5 5 5 5 5 5 6 5 7 8 8 9 12 13 14 15 16 19
3 3 3 3 4 3 3 4 4 5 5 5 5 6 7 7 7 6 6 6 6 6 6 6 6 6 5 4 3 3 4 5 6 7 7 7 8 9 11 13 13 13 14
3 3 3 4 4 4 4 4 5 5 5 6 5 6 7 7 7 7 7 6 7 6 7 7 6 6 5 5 3 2 2 3 5 6 5 7 7 6 8 11 12 13 12
3 3 4 5 5 5 5 4 5 4 5 6 5 5 6 7 8 7 8 7 7 7 7 8 7 7 7 6 5 4 3 4 2 4 6 6 7 7 7 8 11 12 13
3 3 4 5 6 6 5 5 6 6 7 8 6 6 7 8 8 8 9 8 8 8 8 8 8 7 8 7 6 5 5 3 3 3 4 6 8 8 9 9 9 11 12
2 3 5 6 6 6 6 6 7 7 7 7 6 7 7 7 8 9 9 8 9 8 8 9 8 8 8 9 7 5 5 4 4 3 4 6 6 7 8 8 8 9 11
3 4 5 6 6 6 6 6 7 8 9 9 8 8 7 6 7 8 9 8 9 8 8 9 9 9 9 10 8 7 6 5 5 4 4 6 7 6 7 7 8 9 10
Wind_Direction
28 48 37 27 25 24 23 23 24 29 35 37 38 62 176 179 177 182 181 179 174 171 170 169 164 160 156 149 136 128 124 122 119 117 117 118 117 114 111 110 108 105 108
37 50 42 30 27 26 24 22 24 24 26 32 32 28 62 187 192 196 193 190 188 189 187 185 178 171 168 162 153 145 138 133 130 128 127 127 125 122 118 113 113 112 112
46 51 43 32 28 25 24 23 21 23 22 25 29 29 23 3 211 209 202 197 197 199 198 195 187 180 175 170 164 159 153 146 146 145 144 138 133 131 125 121 121 120 118
42 49 46 36 29 25 23 22 20 17 18 17 21 26 19 4 298 232 212 204 204 205 203 197 191 188 182 178 170 166 166 162 165 167 168 157 144 142 140 133 131 126 124
38 48 49 38 28 24 21 20 18 15 10 9 10 12 14 5 338 280 234 221 216 210 205 199 192 189 186 183 178 177 177 177 184 189 175 148 142 147 149 147 142 136 131
33 42 40 37 27 22 18 15 14 11 6 0 1 357 353 352 333 303 260 230 224 222 215 205 198 194 186 183 184 184 187 190 195 195 183 152 145 152 151 150 150 147 142
29 34 33 25 22 19 14 10 7 4 1 358 352 351 338 330 323 298 275 245 230 227 224 215 206 196 188 187 189 189 194 197 200 190 180 154 149 156 160 160 160 156 150
31 30 32 18 14 10 8 4 1 358 354 353 348 342 340 322 308 296 277 259 243 234 229 222 210 203 196 194 194 194 198 201 206 193 178 158 159 164 168 168 168 165 159
36 26 27 17 10 0 358 358 357 350 347 345 341 333 330 323 303 291 282 267 254 245 235 227 216 211 206 203 201 199 200 203 215 195 188 168 168 172 176 176 174 171 169
37 25 21 14 7 359 350 349 350 341 337 337 331 326 321 316 303 284 277 268 257 251 241 230 224 217 213 210 207 203 203 207 219 207 187 173 173 180 182 181 178 175 172
20 20 15 5 4 356 347 346 341 332 330 331 327 323 317 307 305 290 273 267 256 253 245 233 230 224 214 210 206 204 203 211 211 204 191 182 182 186 188 187 184 181 180
3 10 16 7 358 353 345 339 332 329 328 328 330 324 313 311 309 302 292 277 260 253 244 235 232 224 210 203 202 199 207 217 213 201 189 184 189 193 193 191 190 189 189
357 11 13 6 357 349 342 333 333 328 331 330 330 326 317 317 312 308 299 278 267 254 245 239 227 219 210 201 197 201 211 216 213 201 189 188 193 198 199 198 195 195 196
1 6 7 7 351 339 334 324 321 326 320 320 321 326 322 313 310 302 287 282 277 263 249 238 236 223 216 208 205 207 215 216 210 198 193 191 195 201 204 205 201 201 202
348 349 351 351 335 325 321 316 328 313 310 317 319 319 319 304 286 285 276 273 263 266 243 232 231 228 221 213 210 210 218 220 215 199 193 194 196 203 207 206 206 206 206
326 329 330 327 316 317 310 307 305 317 313 310 309 305 308 308 287 285 275 263 257 259 246 236 229 235 233 223 217 215 218 217 218 200 188 196 199 203 208 210 210 211 212
301 306 314 311 316 308 303 300 305 300 303 296 294 295 299 303 290 277 276 263 259 268 256 244 234 230 240 232 225 221 223 218 215 205 192 194 199 204 208 214 216 215 216
291 300 310 310 308 297 295 290 289 290 296 289 292 287 285 290 290 277 271 266 263 263 249 239 229 232 236 232 229 227 227 225 219 212 201 196 198 203 208 213 217 219 219
279 280 282 289 292 293 291 285 287 287 286 287 284 279 275 278 283 275 266 267 267 254 246 248 238 228 231 232 233 230 225 227 224 222 214 204 200 200 203 211 215 219 221
260 260 264 279 286 290 288 287 287 283 282 281 273 270 273 272 273 272 265 266 259 252 247 240 240 236 233 229 240 240 233 229 227 224 219 213 204 200 200 205 210 215 217
264 273 271 280 287 294 290 285 283 280 280 278 263 267 269 271 270 261 262 267 255 247 244 243 239 233 234 220 230 253 258 235 227 228 221 212 209 204 198 200 203 206 210
264 276 283 282 285 284 277 271 265 268 271 270 264 265 262 266 267 268 255 258 258 248 243 241 236 234 235 213 201 217 243 249 236 230 222 215 211 205 204 204 202 203 201
281 282 291 283 282 279 278 276 281 276 277 276 270 263 254 258 261 261 255 252 256 247 239 234 231 231 229 224 203 197 210 223 254 231 230 223 215 212 209 206 207 205 202
273 275 280 282 285 282 278 273 274 271 273 272 268 264 261 256 258 258 257 250 251 248 240 234 233 232 224 225 223 225 234 234 218 226 229 227 222 218 212 211 210 206 204
273 269 271 277 277 277 274 267 268 266 267 270 268 268 266 260 258 255 256 251 250 248 243 235 229 232 231 226 226 221 233 245 239 235 236 226 230 225 218 213 209 208 204
273 267 272 277 279 276 275 273 272 269 273 275 274 269 265 265 263 256 255 252 250 246 243 237 227 231 235 232 229 221 215 217 217 229 235 221 229 231 223 218 212 209 204
Height
1500 1498 1497 1497 1497 1497 1497 1498 1498 1499 1500 1501 1502 1503 1504 1505 1506 1507 1508 1509 1510 1511 1512 1512 1513 1513 1514 1515 1515 1516 1516 1517 1517 1517 1518 1518 1519 1519 1519 1520 1520 1520 1521
1499 1498 1497 1497 1497 1497 1497 1498 1498 1499 1500 1500 1501 1502 1503 1505 1506 1507 1508 1509 1510 1511 1511 1512 1512 1513 1514 1514 1515 1516 1516 1517 1517 1517 1518 1518 1519 1519 1519 1520 1520 1521 1521
1498 1497 1497 1496 1497 1497 1497 1498 1498 1499 1499 1500 1501 1501 1503 1504 1505 1506 1507 1508 1509 1510 1511 1511 1512 1512 1513 1514 1514 1515 1516 1516 1517 1518 1518 1518 1519 1519 1520 1520 1521 1521 1521
1498 1497 1496 1496 1496 1496 1496 1497 1497 1498 1498 1499 1500 1501 1502 1503 1504 1505 1506 1507 1508 1509 1510 1510 1511 1512 1512 1513 1514 1515 1515 1516 1517 1518 1518 1518 1518 1519 1520 1520 1521 1521 1522
1497 1496 1495 1495 1495 1495 1496 1496 1496 1497 1497 1498 1499 1500 1500 1501 1502 1503 1504 1505 1506 1507 1508 1509 1510 1510 1511 1512 1513 1514 1514 1515 1516 1517 1517 1518 1518 1519 1519 1520 1520 1521 1521
1496 1495 1495 1494 1494 1494 1494 1494 1495 1495 1496 1496 1497 1498 1498 1499 1500 1501 1502 1503 1504 1505 1506 1507 1508 1509 1510 1511 1512 1512 1513 1514 1515 1516 1517 1517 1518 1518 1519 1519 1520 1520 1521
1494 1493 1493 1493 1492 1492 1492 1492 1493 1493 1493 1494 1495 1495 1496 1497 1498 1499 1500 1501 1502 1503 1504 1505 1506 1507 1508 1509 1510 1511 1512 1513 1514 1515 1516 1516 1517 1517 1518 1518 1519 1520 1520
1493 1492 1491 1491 1491 1490 1490 1490 1490 1490 1491 1491 1492 1493 1493 1494 1495 1496 1497 1498 1499 1500 1501 1502 1503 1504 1506 1507 1507 1509 1510 1511 1512 1513 1514 1514 1515 1516 1516 1517 1518 1519 1519
1491 1491 1490 1489 1488 1488 1488 1488 1488 1488 1488 1488 1489 1489 1490 1491 1491 1492 1494 1495 1496 1497 1498 1499 1500 1501 1503 1504 1505 1506 1507 1509 1510 1511 1512 1512 1513 1514 1515 1516 1516 1517 1518
1490 1489 1488 1487 1486 1485 1485 1485 1485 1485 1485 1485 1486 1486 1487 1487 1488 1489 1490 1491 1492 1493 1494 1496 1497 1498 1499 1501 1502 1503 1505 1506 1507 1508 1509 1510 1511 1512 1513 1514 1515 1516 1516
1488 1487 1486 1484 1483 1483 1482 1482 1482 1482 1482 1482 1482 1482 1483 1483 1484 1485 1486 1487 1488 1489 1491 1492 1493 1494 1496 1497 1499 1500 1501 1503 1504 1505 1506 1507 1508 1509 1510 1511 1512 1513 1514
1486 1485 1483 1482 1481 1480 1479 1479 1478 1478 1478 1478 1478 1478 1479 1479 1480 1481 1482 1483 1484 1485 1486 1487 1489 1490 1491 1492 1494 1496 1497 1499 1500 1501 1503 1504 1505 1507 1507 1508 1510 1511 1512
1484 1483 1481 1480 1478 1477 1476 1475 1475 1475 1475 1474 1474 1475 1474 1475 1476 1476 1477 1478 1479 1480 1481 1483 1484 1485 1486 1487 1489 1491 1493 1495 1497 1497 1499 1500 1502 1503 1504 1505 1506 1508 1509
1482 1480 1479 1477 1476 1475 1473 1472 1471 1471 1471 1470 1470 1470 1470 1470 1471 1472 1473 1474 1475 1476 1477 1478 1479 1480 1481 1483 1484 1486 1488 1491 1492 1494 1494 1496 1498 1499 1501 1502 1503 1504 1505
1479 1478 1476 1475 1473 1471 1470 1469 1468 1467 1467 1466 1466 1466 1466 1465 1466 1467 1468 1469 1470 1471 1472 1473 1474 1475 1476 1478 1479 1481 1483 1485 1487 1489 1490 1491 1493 1495 1497 1498 1499 1501 1502
1477 1475 1474 1472 1470 1468 1467 1466 1465 1464 1463 1463 1462 1462 1462 1462 1462 1462 1463 1464 1465 1466 1467 1468 1469 1470 1472 1473 1474 1475 1477 1480 1482 1484 1485 1486 1488 1490 1492 1494 1495 1497 1498
1474 1472 1471 1469 1467 1466 1464 1463 1461 1460 1459 1459 1458 1458 1458 1458 1458 1458 1458 1459 1459 1461 1462 1463 1464 1465 1466 1468 1468 1470 1472 1474 1476 1478 1479 1481 1482 1484 1487 1489 1491 1492 1494
1471 1469 1468 1466 1464 1462 1461 1459 1458 1457 1455 1455 1454 1454 1454 1454 1454 1454 1454 1454 1455 1455 1456 1457 1458 1459 1461 1462 1463 1464 1466 1468 1470 1472 1474 1475 1477 1479 1481 1483 1485 1487 1489
1468 1466 1464 1462 1460 1458 1457 1456 1454 1453 1452 1451 1450 1450 1449 1449 1450 1449 1449 1450 1450 1450 1450 1452 1452 1454 1455 1456 1457 1459 1460 1461 1463 1465 1467 1469 1471 1473 1475 1477 1479 1482 1484
1465 1463 1461 1459 1457 1455 1453 1451 1450 1448 1447 1446 1445 1445 1444 1444 1444 1444 1444 1444 1445 1444 1445 1446 1447 1448 1450 1451 1452 1453 1454 1455 1457 1459 1461 1463 1465 1467 1469 1471 1473 1476 1478
1461 1460 1458 1456 1454 1452 1449 1447 1445 1443 1442 1441 1440 1439 1439 1438 1438 1438 1438 1439 1439 1438 1439 1440 1441 1443 1444 1446 1448 1448 1449 1450 1451 1453 1455 1457 1459 1461 1463 1465 1467 1470 1472
1457 1456 1454 1452 1450 1448 1445 1443 1441 1439 1437 1436 1435 1434 1434 1433 1433 1433 1432 1433 1433 1433 1433 1434 1436 1437 1438 1441 1442 1443 1443 1444 1444 1446 1449 1451 1453 1455 1457 1459 1461 1463 1465
1454 1452 1450 1448 1445 1443 1441 1438 1436 1434 1432 1431 1429 1428 1428 1427 1427 1427 1427 1427 1427 1427 1427 1428 1430 1431 1432 1434 1436 1438 1438 1437 1438 1440 1442 1444 1447 1449 1450 1453 1455 1457 1459
1450 1448 1446 1444 1441 1439 1436 1434 1431 1429 1427 1425 1423 1422 1421 1421 1420 1420 1420 1421 1421 1421 1421 1422 1423 1425 1427 1427 1429 1430 1433 1432 1433 1433 1435 1438 1441 1442 1444 1447 1449 1451 1453
1447 1445 1442 1439 1437 1434 1432 1429 1427 1424 1422 1420 1418 1416 1415 1414 1414 1414 1413 1413 1414 1414 1414 1415 1417 1418 1419 1420 1422 1423 1425 1426 1427 1427 1428 1431 1433 1435 1438 1440 1442 1445 1447
1443 1441 1438 1435 1432 1430 1427 1425 1422 1420 1417 1414 1412 1409 1408 1407 1406 1407 1406 1406 1407 1406 1407 1408 1409 1411 1413 1413 1415 1416 1417 1419 1420 1422 1422 1424 1426 1428 1431 1433 1435 1438 1441